Regional Weather Roundup
Issued by NWS Northern Indiana

Home | Current Version | Previous Version | Graphics & Text | Print | Product List | Glossary On
Versions: 1 2 3 4 5 6 7 8 9 10 11 12 13 14 15 16 17 18 19 20 21 22 23 24 25 26 27 28 29 30 31 32 33 34 35 36 37 38 39 40 41 42 43 44 45 46 47 48 49 50
000
ASUS43 KIWX 190810
RWRIWX

KIWX WEATHER ROUNDUP
NATIONAL WEATHER SERVICE NORTHERN INDIANA
400 AM EDT TUE SEP 19 2017

NOTE: "FAIR" INDICATES FEW OR NO CLOUDS BELOW 12,000 FEET WITH NO
SIGNIFICANT WEATHER AND/OR OBSTRUCTIONS TO VISIBILITY.

* THESE STATIONS ARE NOT UNDER NWS QUALITY CONTROL. THEY ALSO MAY NOT
  REPORT WEATHER SUCH AS PRECIPITATION OR FOG.

INZ001>027-190900-
NORTHERN INDIANA

CITY           SKY/WX    TMP DP  RH WIND       PRES   REMARKS
GARY*          RAIN      66  66 100 CALM      29.95S
VALPARAISO     LGT RAIN  67  64  90 SE10G17   29.94F FOG
MICHIGAN CITY* RAIN      63  63 100 CALM      29.95S
LAPORTE*       CLOUDY    65  63  91 NE3       29.95S
KNOX*          CLOUDY    64  63  94 SW6       29.95R
SOUTH BEND     LGT RAIN  66  62  87 E7        29.96F
GOSHEN         CLOUDY    67  64  90 E6        29.96F FOG
MONTICELLO*    LGT RAIN  65  64  95 CALM      29.94R
LOGANSPORT*    CLOUDY    68  66  94 SE6       29.94S
ROCHESTER*     CLOUDY    70  68  94 E6        29.94S
WARSAW*        CLOUDY    66  66 100 E9        29.96S FOG
AUBURN*        FOG       68  64  88 E5        29.98F VSB 3/4
FORT WAYNE     FOG       67  65  93 E9        29.96F VSB 1/2
HUNTINGTON*    FOG       66  65  96 E3        29.95F VSB 1
PERU/GRISSOM   CLOUDY    69  69 100 SE3       29.93F

$$
INZ028>050-190900-
CENTRAL INDIANA

CITY           SKY/WX    TMP DP  RH WIND       PRES   REMARKS
LAFAYETTE      TSTM      65  65 100 S3        29.94S VSB 3/4
KOKOMO*        CLOUDY    69  67  93 S9        29.95F
MUNCIE*        MOCLDY    70  66  87 S6        29.96F
INDIANAPOLIS   CLOUDY    70  68  93 S9        29.95S THUNDER

$$
MIZ043>046-050>051-056>058-064>065-071>073-077>080-190900-
SOUTHWEST LOWER MICHIGAN

CITY           SKY/WX    TMP DP  RH WIND       PRES   REMARKS
BATTLE CREEK   CLOUDY    67  65  93 VRB5      30.01F FOG
BENTON HARBOR  LGT RAIN  63  59  87 E6        29.96S
COLDWATER*     CLOUDY    66  66 100 SE8       29.99F FOG
HILLSDALE*     FOG       63  61  94 E3        30.01S VSB 3/4
HOLLAND        CLOUDY    63  59  87 E8        29.99S
GRAND RAPIDS   CLOUDY    62  60  93 E8        30.00F
KALAMAZOO      CLOUDY    67  62  84 CALM      29.99F HAZE
STURGIS*       CLOUDY    67  65  96 E7        29.97F FOG
THREE RIVERS*  CLOUDY    68  67  95 E6        29.98F FOG

$$
OHZ001>008-015>018-024>025-190900-
NORTHWEST OHIO

CITY           SKY/WX    TMP DP  RH WIND       PRES   REMARKS
WAUSEON*       FOG       64  64 100 VRB5      29.99F VSB 3/4
DEFIANCE       CLOUDY    67  65  93 NE5       29.98F FOG
FINDLAY        CLOUDY    69  65  86 E5        29.97F FOG
TOLEDO EXPRESS CLOUDY    65  32  29 NE6       29.99F
TOLEDO METCALF CLOUDY    67  65  93 NE5       30.00F FOG
LIMA           MOCLDY    67  67 100 E3        29.98F FOG

$$
AND FOR LAKE MICHIGAN COASTAL AND OPEN LAKE BUOY OBSERVATIONS

STATION/POSITION TEMP    WIND        PRES    VSBY  WAVE
                 AIR SEA DIR/SP/G                  HT/PER
                 (F)     (DEG/KT/KT) (MB)    (MI)  (FT/S)
CALUMET HARBOR    66      40/  1/  3 1013.2F
MICHIGAN CITY     65     110/  5/  5   N/A
BURNS HARBOR      66     100/  4/  5 1014.2F
SAINT JOSEPH      65     290/  1/  4 1014.9
SOUTH LAKE BUOY   68 68   80/ 12/ 14 1014.1F         2/ 5
4 MI NW BRIDGMAN  66 68  140/ 10/ 12 1014.2          2/ 2
MICHIGAN CITY     66 68  120/  8/ 12   N/A           2/ 5

$$
&&



USA.gov is the U.S. government's official web portal to all federal, state and local government web resources and services.